Tracking 20040 objects as of 18-Nov-2019
Live streaming from Space Station
objects crossing your sky now

THORAD AGENA D DEB


THORAD AGENA D DEB is no longer on orbit


NORAD ID: 19581
Int'l Code: 1969-082LF
Perigee: N/A
Apogee: N/A
Inclination: N/A
Period: N/A
Semi major axis: N/A
RCS: N/A
Launch date: September 30, 1969
Source: United States (US)
Launch site: AIR FORCE WESTERN TEST RANGE (AFWTR)
Decay date: 2012-12-10

Note: This is SATELLITE DEBRIS
aabbcc
Your satellite tracking list
Your tracking list is empty




NASA's NSSDC Master Catalog

Two Line Element Set (TLE):
1 19581U 69082LF  12344.11673098  .01765340  19576-2  33940-2 0  9995
2 19581 070.0326 025.7867 0015321 350.7687 009.4760 16.00543280 65610
Source of the keplerian elements: AFSPC